This is the latest recevied weather packets stored in our database for station/object KC2GYU. If no packets are shown the sender has not sent any weather packets the latest 10 day(s).
| Time | Temp. | Humidity | Pressure | Rain* | Wind** | Luminosity | Snow |
|---|---|---|---|---|---|---|---|
| 1778078451 | 19.44° C | 85% | 1012.4 hPa | 0 mm | - | 355 W/m² | - |
| 1778078149 | 18.89° C | 86% | 1012.4 hPa | 0 mm | - | 341 W/m² | - |
| 1778077847 | 18.89° C | 86% | 1012.3 hPa | 0 mm | - | 338 W/m² | - |
| 1778077544 | 18.89° C | 85% | 1012.2 hPa | 0 mm | - | 337 W/m² | - |
| 1778077242 | 18.89° C | 84% | 1012.1 hPa | 0 mm | - | 364 W/m² | - |
| 1778076940 | 18.89° C | 86% | 1012.2 hPa | 0 mm | - | 333 W/m² | - |
| 1778076638 | 18.89° C | 85% | 1012.3 hPa | 0 mm | - | 278 W/m² | - |
| 1778076335 | 18.89° C | 85% | 1012.2 hPa | 0 mm | - | 460 W/m² | - |
| 1778076032 | 19.44° C | 84% | 1012.2 hPa | 0 mm | - | 333 W/m² | - |
| 1778075729 | 19.44° C | 84% | 1012.2 hPa | 0 mm | - | 536 W/m² | - |
| 1778075425 | 18.89° C | 85% | 1012 hPa | 0 mm | - | 544 W/m² | - |
| 1778075121 | 18.33° C | 87% | 1012.3 hPa | 0 mm | - | 350 W/m² | - |
| 1778074818 | 18.33° C | 86% | 1012.1 hPa | 0 mm | - | 261 W/m² | - |
| 1778074515 | 17.78° C | 87% | 1012.3 hPa | 0 mm | - | 327 W/m² | - |
| 1778074212 | 17.78° C | 88% | 1012.3 hPa | 0 mm | - | 279 W/m² | - |
| 1778073909 | 17.78° C | 88% | 1012.3 hPa | 0 mm | - | 221 W/m² | - |
| 1778073606 | 18.33° C | 87% | 1012.4 hPa | 0 mm | - | 222 W/m² | - |
| 1778073303 | 18.33° C | 87% | 1012.6 hPa | 0 mm | - | 223 W/m² | - |
| 1778073000 | 17.78° C | 88% | 1012.6 hPa | 0 mm | - | 234 W/m² | - |
| 1778072696 | 18.33° C | 87% | 1012.6 hPa | 0 mm | - | 192 W/m² | - |
| 1778072394 | 18.33° C | 87% | 1012.8 hPa | 0 mm | - | 287 W/m² | - |
| 1778072092 | 19.44° C | 85% | 1012.6 hPa | 0 mm | - | 245 W/m² | - |
| 1778071790 | 18.89° C | 86% | 1012.5 hPa | 0 mm | - | 295 W/m² | - |
| 1778071487 | 18.33° C | 86% | 1012.5 hPa | 0 mm | - | 417 W/m² | - |
| 1778071185 | 18.33° C | 87% | 1012.5 hPa | 0 mm | - | 362 W/m² | - |
* Rain latest hour (hover to see other rain measurements)
** Current wind speed in m/s (hover to see current wind gust speed)